Weather in Yakunyel

Russia / Komi Republic     59°22′43″N   49°46′43″E
temp.,
°C
wind,
m/s
gust,
m/s
humid.,
%
clouds,
%
prec.,
mm/h
press.,
hPa
HPBL,
m
19 april, mon
mon1900:00−2ene310720 0.0 1035374
03:00−3ene39760 0.0 1036277
06:00−2e38650 0.0 1036345
09:00+2e45400 0.0 10371303
12:00+5e34350 0.0 10361522
15:00+6e34351 0.0 10351558
18:00+3e23510 0.0 103565
21:00−1e22660 0.0 103629
20 april, tue
tue2000:00−2ese22670 0.0 103636
03:00−2ese11680 0.0 103712
06:000se11580 0.0 1036103
09:00+6se12395 0.0 1036875
12:00+8sse22330 0.0 10341295
15:00+9sse22323 0.0 10331333
18:00+6se22470 0.0 103140
21:00+2se22620 0.0 103218
21 april, wed
wed2100:000se22670 0.0 103124
03:00−1se26705 0.0 1031106
06:00+2se3105981 0.0 1030289
09:00+7se61037100 0.0 1028947
12:00+10se61133100 0.0 10251212
15:00+10se61440100 0.0 10231368
18:00+8sse61543100 0.0 10211309
21:00+6sse71760100 0.1 10211234
22 april, thu
thu2200:00+3sse61596100 0.3 1021918
03:00+3s51396100 0.4 1021836
06:00+3s51296100 0.0 1021716
09:00+3s41195100 0.0 1022695
12:00+5s4892100 0.0 1022699
15:00+5sse4988100 0.1 1023710
18:00+5sse41095100 0.0 1023539
21:00+4sse41095100 0.1 1024588
23 april, fri
fri2300:00+4s3896100 0.1 1024665
03:00+4sse3897100 0.3 1025347
06:00+4s3897100 0.1 1026349
09:00+5s368878 0.1 1026459
12:00+9s4671100 0.0 1026865
15:00+11s576465 0.1 10251197
18:00+10sse486980 0.1 1025676
21:00+7sse311886 0.1 1025380